sat.trackr.live / text

‹ back to catalog

STARLINK-32939

NORAD 63149 · 2025-043T

PAYLOAD ACTIVE UNKNOWN

§ Identity

Operator
Country
US
Launch date
2025-03-03
Launch site
AFETR
Launch vehicle
Mass (kg)
RCS (m²)

Purposes: comms

External: N2YO · Heavens-Above · Gunter

§ Orbital elements

Epoch: 2026-09-19T16:26:03.771168Z

Period
94.27 min
Inclination
43.0018°
Eccentricity
0.0001859
Mean motion
15.27594046 rev/d
Perigee alt
481.7 km
Apogee alt
484.3 km
Semi-major
6,861.1 km
B*
3.5085e-4
RAAN
0.4516°
Arg perigee
279.4763°
Mean anomaly
80.5878°
Rev number
8,703

§ Raw data

STARLINK-329391 63149U 25043T   26262.68476587  .00009409  00000+0  35085-3 0  99912 63149  43.0018   0.4516 0001859 279.4763  80.5878 15.27594046 87035

JSON: /api/v1/satellites/63149 · /tle

For live sub-satellite position, see the globe view (requires WebGL).

§ Visibility from observer

Set your observer location to see the next 7 days of passes ≥ 10°. The values pass through the URL so the page stays shareable.

No JS? Fill the form by hand. The geolocation button needs JavaScript.